Location: Hac?musa Deresi
(39.1694°N, 32.2508°E)
Time: 15:29:31
(UTC+00:00)

Cosmos 1315 Rocket - Pass Details

Date: 22 April 2026
Orbit: 490 x 510 km, 81.2° (Epoch: 11 May)

Event Time Altitude Azimuth Distance (km) Brightness Sun altitude
Exits shadow 18:34:28 20° 43° (NE) 1,202 4.5 -21.3°
Drops below altitude 10° 18:35:56 10° 29° (NNE) 1,711 5.4 -21.5°
Sets 18:38:11 0° 19° (NNE) 2,596 6.5 -21.9°
